Regional Weather Roundup
Issued by NWS

Home | Current Version | Previous Version | Text Only | Print | Product List | Glossary On
Versions: 1 2 3 4 5 6 7 8 9 10 11 12 13 14 15 16 17 18 19 20 21 22 23 24 25 26 27 28 29 30 31 32 33 34 35 36 37 38 39 40 41 42 43 44 45 46 47 48 49 50
000
ASUS45 KBOU 260007
RWRCO

WEATHER ROUNDUP FOR COLORADO
NATIONAL WEATHER SERVICE DENVER/BOULDER CO
500 PM MST TUE NOV 25 2014

NOTE: "FAIR" INDICATES FEW OR NO CLOUDS BELOW 12000 FEET WITH NO
SIGNIFICANT WEATHER AND/OR OBSTRUCTIONS TO VISIBILITY.

COZ001>005-013-030-031-260100-
...NORTHWEST COLORADO...

CITY           SKY/WX    TMP DP  RH WIND       PRES   REMARKS
CRAIG          CLOUDY    28  20  71 CALM      30.17R
HAYDEN         CLOUDY    25  19  80 SE7       30.17S WCI  17
MEEKER         CLOUDY    31  21  66 NE6       30.22S WCI  25
MOUNT WERNER   NOT AVBL
STEAMBOAT SPGS CLOUDY    23  22  95 CALM      30.18R
WALDEN         MOCLDY    28  21  74 W24G33    30.03S WCI  14
$$

COZ006>008-011-260100-
...WEST CENTRAL VALLEYS...

CITY           SKY/WX    TMP DP  RH WIND       PRES   REMARKS
GRAND JUNCTION CLOUDY    37  16  42 CALM      30.28S
MONTROSE       CLOUDY    35  14  42 CALM      30.31R
EAGLE          CLOUDY    30  19  64 SW17      30.26R WCI  18
RIFLE          CLOUDY    27  21  78 NE6       30.30S WCI  20
DELTA          CLOUDY    39  19  44 E6        30.30S
NUCLA          CLOUDY    39   9  28 NE5       30.34R
$$

COZ017>023-064>068-260100-
...SOUTHWEST COLORADO...

CITY           SKY/WX    TMP DP  RH WIND       PRES   REMARKS
DURANGO        CLEAR     39  10  30 SW13      30.22S
CORTEZ         CLEAR     37   5  26 NW8       30.32S
PAGOSA SPRINGS CLEAR     32   6  32 CALM      30.25S
TELLURIDE      CLOUDY    28  19  70 CALM      30.35R
WOLF CREEK PAS CLEAR     12   5  73 MISG      30.22F
$$

COZ009-010-012-014-032>034-037-058>063-260100-
...CENTRAL COLORADO...

CITY           SKY/WX    TMP DP  RH WIND       PRES   REMARKS
ASPEN          FLURRIES  22  19  89 CALM      30.23R
BUENA VISTA    PTCLDY    30  15  53 NW22G30   30.11R WCI  17
COPPER MTN     CLOUDY    18  10  73 W23G33    30.12R WCI   0
BERTHOUD PASS  NOT AVBL
COTTONWOOD PAS LGT SNOW  28  16  59 NW33G53   30.06R WCI  12
GUNNISON       CLOUDY    25  18  74 CALM      30.30S
KREMMLING      LGT SNOW  28  21  74 W14G30    30.16R WCI  17
LEADVILLE      LGT SNOW  18  14  84 N17G24    30.14R VSB 1   WCI   3
SALIDA         PTCLDY    36  16  43 W35G46    30.13S
SUNLIGHT       CLOUDY   N/A N/A N/A SW3       30.21R
WILKERSON PASS MOCLDY    21  14  73 NW21      30.03R WCI   6
$$

COZ069>075-260100-
...SAN LUIS VALLEY/SANGRE DE CRISTO MOUNTAINS...

CITY           SKY/WX    TMP DP  RH WIND       PRES   REMARKS
ALAMOSA        CLEAR     27   5  39 E7        30.19R WCI  19
LA VETA PASS   PTCLDY    21  10  63 S14G26    30.07R WCI   8
SAGUACHE       NOT AVBL
$$

COZ035-036-038>040-260100-
...NORTHERN COLORADO FRONT RANGE...

CITY           SKY/WX    TMP DP  RH WIND       PRES   REMARKS
DENVER INTL AP MOCLDY    44  18  35 W14       29.90R
DMNS CITY PARK   N/A     46  19  33 W16G37    29.91S
AURORA         MOCLDY    43  20  39 W18G25    29.92R
FRONT RANGE AP NOT AVBL
ERIE MUNI ARPT PTCLDY    45  17  33 NW6       29.90R
BOULDER MUN AP PTCLDY    46  19  34 W25G37    29.89R
CENTENNIAL     MOCLDY    43  20  39 NW18G28   29.94R
BROOMFIELD     MOCLDY    43  19  39 W21G28    29.92R
FORT COLLINS   CLEAR     48  21  34 W31G41    29.87S
LONGMONT       CLEAR     49  19  30 SE13      29.89R
$$

COZ041-046-047-076>085-087-088-260100-
...PIKES PEAK/PALMER DIVIDE AND SOUTHERN FOOTHILLS...

CITY           SKY/WX    TMP DP  RH WIND       PRES   REMARKS
COLO. SPRINGS  CLOUDY    47  16  29 NW20      29.93R
A. F. ACADEMY  CLOUDY    41  16  37 N3        29.94R
ELLICOTT       NOT AVBL
FALCON         NOT AVBL
FORT CARSON    CLOUDY    42  17  35 S9        29.90R
LIMON          MOCLDY    37  15  40 NW10      29.91R
MONUMENT HILL  MOCLDY    36  19  51 NW13G20   29.94R
TRINIDAD       PTCLDY    44  21  40 NW10      29.95S
$$

COZ042>045-048>051-090-091-260100-
...NORTHEAST COLORADO...

CITY           SKY/WX    TMP DP  RH WIND       PRES   REMARKS
GREELEY ARPT   CLEAR     46  21  36 NW29G38   29.87S
AKRON          CLOUDY    45  17  32 W13       29.87S
BURLINGTON     CLOUDY    45  12  26 NW8       29.89R
WRAY           CLOUDY    47  25  42 N13G18    29.88R
STERLING       CLOUDY    48  27  43 N15       29.87R
HOLYOKE        CLOUDY    43  30  61 N22G32    29.87S
FORT MORGAN    CLOUDY    46  20  35 NW17G29   29.88S
$$

COZ086-089-092>099-260100-
...SOUTHEAST COLORADO...

CITY           SKY/WX    TMP DP  RH WIND       PRES   REMARKS
PUEBLO         MOCLDY    53  18  25 W15G30    29.89R
LA JUNTA       CLEAR     43  20  39 W9        29.90R
LAMAR          CLEAR     41  14  33 S7        29.88S
SPRINGFIELD      N/A     39  14  36 W10       29.91S
$$



USA.gov is the U.S. government's official web portal to all federal, state and local government web resources and services.